Hourly Data Report for October 12, 2013

All times are specified in Local Standard Time (LST). Add 1 hour to adjust for Daylight Saving Time where and when it is observed.

MONCTON INTL A
NEW BRUNSWICK

46°06'44.000" N
64°40'43.000" W
70.70 m
8103201
71705
YQM

Download Data

Hourly Data (October 2013)
Hourly Data Report for October 12, 2013
Temp Definition
°C
Dew Point Temp Definition
°C
Rel Hum Definition
%
Wind Dir Definition
10's deg

Wind Spd Definition
km/h
Visibility Definition
km
Stn Press Definition
kPa
Hmdx Definition


Wind Chill Definition


Weather Definition


TIME
00:00 Legend Double Dagger 5.8 5.2 96 2 8 24.1 101.66     LegendNANA
01:00 Legend Double Dagger 5.7 4.7 93 2 5 24.1 101.70     LegendNANA
02:00 Legend Double Dagger 5.7 4.2 90 36 8 24.1 101.72     Mostly Cloudy
03:00 Legend Double Dagger 4.6 3.3 91 35 9 24.1 101.76     LegendNANA
04:00 Legend Double Dagger 4.1 2.8 91 36 8 24.1 101.82     LegendNANA
05:00 Legend Double Dagger 2.3 1.1 92 35 14 24.1 101.87     Mainly Clear
06:00 Legend Double Dagger 2.7 1.5 92 35 9 24.1 101.92     LegendNANA
07:00 Legend Double Dagger 2.6 1.4 92 34 9 24.1 101.99     LegendNANA
08:00 Legend Double Dagger 6.1 3.4 83 33 6 24.1 102.04     Mainly Clear
09:00 Legend Double Dagger 7.6 3.8 77 34 10 24.1 102.07     LegendNANA
10:00 Legend Double Dagger 9.4 2.1 60 36 21 24.1 102.13     LegendNANA
11:00 Legend Double Dagger 9.1 2.0 61 3 21 24.1 102.16     Mostly Cloudy
12:00 Legend Double Dagger 9.4 1.1 56 2 15 24.1 102.16     LegendNANA
13:00 Legend Double Dagger 9.5 1.9 59 2 14 24.1 102.12     LegendNANA
14:00 Legend Double Dagger 9.0 1.9 61 3 15 24.1 102.10     Mostly Cloudy
15:00 Legend Double Dagger 9.7 2.1 59 2 14 24.1 102.10     LegendNANA
16:00 Legend Double Dagger 9.2 0.9 56 2 16 24.1 102.13     LegendNANA
17:00 Legend Double Dagger 7.3 1.6 67 2 11 24.1 102.13     Mainly Clear
18:00 Legend Double Dagger 5.9 1.3 72 5 4 24.1 102.13     LegendNANA
19:00 Legend Double Dagger 5.7 1.1 72 2 1 24.1 102.12     LegendNANA
20:00 Legend Double Dagger 3.3 0.4 81 13 1 24.1 102.14     Clear
21:00 Legend Double Dagger 0.8 0.1 95 31 2 24.1 102.18     LegendNANA
22:00 Legend Double Dagger 2.8 0.9 87 21 5 24.1 102.18     LegendNANA
23:00 Legend Double Dagger 1.8 1.4 97 23 8 8.1 102.18     Fog

Notes on Data Quality.

Legend

  • E = Estimated
  • M = Missing
  • NA = Not Available
  • ‡ = Partner data that is not subject to review by the National Climate Archives
Date modified: